Вернуться в каталог

USA 549

АктивенНавигацияSSO
NORAD 65075·PAYLOAD·🇺🇸 United States

Запущен Jul 31, 2025 с Vandenberg Space Force Base

Loading…

Ближайшие Пролёты (ближайшие 24 часа)

TLE

УстаревшееSource: Mike McCants

Эпоха: Aug 21, 2026, 22:16 UTC

1 65075U 25165V   26233.92796340 0.00000000  00000-0  00000-0 0    01
2 65075  97.6024 326.8652 0001540 286.1714  73.8284 15.40354712    08

Отслеживайте USA 549 в реальном времени с AllMySat

Download on the App Store